OBJECT H, 59780

Orbit data source: Space-Track

You're viewing an Uncataloged Satellite

Recently launched and/or uncataloged satellites may have evolving metadata. Metadata may include but not limited to: Owner, Maufacturer, Bus, Motor, and Mission.

OBJECT H, 59780 is a satellite owned by Byuro 1440 (CIS) in SSO that was launched on Thu, 16 May 2024 UTC via a SOYUZ-2-1B launch vehicle from the Plesetsk Missile And Space Complex (PKMTR). Unknown objects in Earth's orbit typically refer to objects detected orbiting the Earth but have not yet been identified or cataloged. These objects could be anything from previously untracked satellites, spent rocket stages, debris from satellite collisions, or even natural meteoroids temporarily captured by Earth's gravity.

Loading next visibility...
Identifier
59780, 2024-092H
Orbit
SSO
Last TLE update
8 hours ago
Origin
Flag of CISBureau 1440 (CIS)
Manufacturer
Byuro 1440
Mission
Operational spacecraft
Bus & Motor
RASSVET-2, Unknown motor
Mass
~200 kg wet, ~200 kg dry
Launch date (UTC)
2024-05-16 (1 year ago)
Launch vehicle
SOYUZ-2-1B
Launch site
Plesetsk Missile And Space Complex (PKMTR)
Object type
Unknown
Shape & HBR
Unknown
Radar Cross Section
Medium (>0.1 m² and <1 m²)

Expand to show TLE details & history

TLE from 8 hours ago
0 OBJECT H
1 59780U 24092H   25186.59580195  .00000139  00000-0  68612-4 0  9990
2 59780  98.6389 301.7244 0013061 145.0557 215.1486 14.31623601 59304
Epoch: 2025-07-05T14:17Z
TLE epoch observation values (Epoch: 2025-07-05T14:17:57.288Z)
Latitude
-0.00001°
Longitude
163.40412°
Altitude
796.898 km
Speed
7.451 km/s
True Right ascension
20h 06m 53s
True Declination
0° 00' 00"
Sunlit
Object was in full shadow at epoch
Visualization orbit readout
Latitude
9.78548°
Longitude
-14.79147°
Altitude
780.081 km
Speed
7.469 km/s
Apparent Right ascension
05h 47m 57s
Apparent Declination
-42° 16' 37"
Sunlit
Object is in daylight
Visualization observer readout
Local Sidereal Time
09:44:04
Azimuth
219.844° SW
Elevation
-8.027°
Doppler factor
1
Orbital elements
Apogee altitude
792.802 km
Perigee altitude
774.095 km
Semi-major axis
7,161.586 km
Eccentricity
0.00131
Inclination
98.6389°
RAAN
301.7244°
Arg. of periapsis
145.0557°
True anomaly
Unknown
Mean anomaly
215.1486°
Eccentric anomaly
Unknown
Mean motion
3.58121 °/min
Orbital period
100.52 mins
BSTAR
0.000068612
Loading maneuver chart data...
Loading SW <> Apogee altitude chart data...
Loading historical data...
Loading historical data...
Loading historical data...
Loading historical data...
Loading historical data...
Loading historical data...
Loading historical data...

OBJECT H Visibility forecast

Observer location: undefined°, undefined°

Span
Click to sort rows by Start time (UTC) header in descending order
Start Az.
Max El. time (UTC)
Max El. Az.
Max El.
End time (UTC)
End Az.
9 mins2025-07-06 07:11:59.257Z142.608° SSE2025-07-06 07:15:59.257Z75.408° E37.656°2025-07-06 07:20:59.257Z357.533° N
5 mins2025-07-06 08:53:59.257Z242.348° WSW2025-07-06 08:55:59.257Z270.971° WNW17.648°2025-07-06 08:58:59.257Z308.324° NW
5 mins2025-07-06 19:25:59.257Z59.912° ENE2025-07-06 19:27:59.257Z86.423° E17.282°2025-07-06 19:30:59.257Z127.38° SE
7 mins2025-07-06 21:04:59.257Z354.261° N2025-07-06 21:07:59.257Z291.876° WNW37.52°2025-07-06 21:11:59.257Z218.084° SW
|